COSMOS 2251 DEB, 37340

Orbit data source: Space-Track

COSMOS 2251 DEB, 37340 is space debris in LEO originally from a launch on Wed, 16 Jun 1993 UTC launched from the Plesetsk Missile And Space Complex (PKMTR). The debris from Iridium 33, an American commercial communications satellite, has been tracked extensively since its accidental collision with the defunct Russian satellite Cosmos 2251 in 2009. This event, occurring at high speed in low Earth orbit (LEO), generated thousands of pieces of space debris, significantly increasing the risk of further collisions. The Iridium 33 debris cloud has impacted space traffic management and orbital debris mitigation strategies, making it a subject of ongoing study in space situational awareness.

Loading next visibility...
Identifier
37340, 1993-036BLG
Orbit
LEO
Country
Flag of CISCIS
Related business
Manufacturer
Unknown
Mission
Spacecraft
Bus & Motor
Unknown
Mass
Unknown
Launch date (UTC)
1993-06-16 (33 years ago)
Launch vehicle
Unknown
Launch site
Plesetsk Missile And Space Complex (PKMTR)
Object type
Payload
Rocket body
Debris
Shape & HBR
Unknown shape, 0.1 m
Radar Cross Section
Small (<0.1 m²)

Expand to show TLE details & history
Last TLE update: 2 days ago

TLE from 2 days ago
0 COSMOS 2251 DEB
1 37340U 93036BLG 26262.34664103  .00000216  00000-0  81146-4 0  9996
2 37340  74.0236 120.7833 0017963 155.0485 205.1541 14.37178925880987
Epoch: 2026-09-19T08:19Z
TLE epoch observation values (Epoch: 2026-09-19T08:19:09.784Z)
Latitude
0.00002°
Longitude
-2.26395°
Altitude
782.071 km
Speed
7.457 km/s
True Right ascension
08h 03m 07s
True Declination
0° 00' 00"
Sunlit
Object was in daylight at epoch
Visualization orbit readout
Latitude
Unknown
Longitude
Unknown
Altitude
Unknown
Speed
Unknown
Apparent Right ascension
Unknown
Apparent Declination
Unknown
Sunlit
N/A
Visualization observer readout
Local Sidereal Time
08:07:07
Azimuth
Unknown
Elevation
Unknown
Doppler factor
Unknown
Orbital elements
Apogee altitude
778.29 km
Perigee altitude
752.626 km
Semi-major axis
7,143.595 km
Eccentricity
0.0018
Inclination
74.0236°
RAAN
120.7833°
Arg. of periapsis
155.0485°
True anomaly
205.06678°
Mean anomaly
205.1541°
Eccentric anomaly
205.11042°
Mean motion
3.59474 °/min
Orbital period
100.15 mins
BSTAR
0.000081146

Documentation

Showing up to 5 results
|